STARLINK-11710 [DTC] (64244 NORAD) Tracking and Keplerian Element Data

This shows tracking and keplerian element data for the satellite.

Feedback or suggestion? Click here.




ElementValue
Catalog64244
NameSTARLINK-11710 [DTC]
Epoch Orbit3273
Epoch Day354.15536049
Epoch Year2025
RAAN328.7311
Inclination42.9988
Eccentricity0.0001796
Argument of Perigee226.4393
Mean Anonmoly133.6326
Mean Motion15.70976894
Decay Rate0.00177957
L11 64244U 25119M 25354.15536049 .00177957 00000+0 13531-2 0 9990
L22 64244 42.9988 328.7311 0001796 226.4393 133.6326 15.70976894 32734



Live tracking and technical data element details for STARLINK-11710 [DTC] (NORAD 64244). STARLINK-11710 [DTC] can be tracked NOW for your location showing map with azimuth and elevation plus other details from your city location.







IsCatalogInMostPopularTable: catalog: 64244, numindb: 2
Update: records affected: 1



GetName: 64244 STARLINK-11710 [DTC]

Hit Count: updated at: Sun, 08 Feb 2026 08:46:14 GMT